カタログに戻る

STARLINK-37761

運用中通信VLEO
NORAD 69200·PAYLOAD·🇺🇸 United States

打ち上げ May 25, 2026 から Cape Canaveral Space Force Station

Loading…

次のパス (今後24時間)

TLE

最新Source: CelesTrak SupGP

元期: Sep 15, 2026, 04:12 UTC

1 69200C 26114U   26258.17548611  .00043830  00000+0  12951-2 0  2582
2 69200  53.1571 138.5461 0001316  83.6142 138.4005 15.34365790    19

AllMySatでSTARLINK-37761をリアルタイム追跡

Download on the App Store